Registrering Status Plassering
LN-NAZ Operativ Rakkestad - ENRK 

Søk
Nye sertifikater

Sertifikater

Kontakt informasjon

Follo flyklubb.
Postboks 226, N-1401 Ski
Epost: post@follo-flyklubb.no

Tel: 64 87 13 82
Du er her: Hovedside

Hovedside

 

Follo flyklubb er en flyklubb med primærbase på Ski flyplass, og sekundærbase (vinterbase) på Rakkestad flyplass. Disse websidene er ment som en informasjonskanal til flyklubbens medlemmer, og andre som måtte være interessert i Follo flyklubbs virksomhet. Har du kommentarer eller bidrag du ønsker å dele med flyklubben, send oss en melding her.

Har noen av flyklubbens medlemmer forslag til turer, aktiviteter eller kurs- og infokvelder dere ønsker at vi deltar på eller avholder, så gi beskjed til styret via epost.

 

Før flyturen: Ta en sjekk på datoer i sertifikatene dine. Husk at det er forskjell på gyldighetsdato for PPL-sertifikatet og klasserettighet, som f.eks. SEP. Her er noen nyttige spørsmål, og litt om rettigheter her.

ENGM 251050Z 21008KT 170V230 9999 FEW010 SCT012 M00/M02 Q0999 NOSIG
ENTO 251050Z 35003KT 9999 FEW030 FEW055CB 01/01 Q1000
ENRY 251050Z 23007KT 200V260 9999 SCT018 BKN053 03/01 Q1001 RESHRA
ENSN 090850Z 20010G22KT 150V240 CAVOK 07/03 Q1000
ENCN 251050Z VRB03KT 9999 VCSH SCT030CB SCT074 02/00 Q1002
ENZV 251050Z 18012KT 9999 -SHRA FEW020CB SCT035 BKN070 04/01 Q0999 TEMPO 25020G30KT 4000 SHRAGS BKN014CB
ENFL 251050Z AUTO 17025KT //// R07///// -SHRA FEW021/// BKN039/// BKN052/// 05/02 Q0990
ENFG 221020Z 08005KT 3000 -DZ BR FEW/// SCT004 BKN006 00/M01 Q1013
ENNO 250950Z 31003KT 270V010 9999 SCT025 BKN040 M04/M05 Q1000
 

Bruk av myWebLog

Follo flyklubb benytter nå myWebLog, se nyheter for mer informasjon
Logging av flyvning skal foretas ”umiddelbart” etter at flyvning har funnet sted. Da har systemet oppdatert medlemmets konto i myWebLog basert på de opplysningene som er skrevet inn i loggen. Flyets data blir også oppdatert, slik at den neste som skal ut å fly kan få en indikasjon på flyets tilstand, hvor det befinner seg og hvor lenge det er til neste service.